This is the latest recevied weather packets stored in our database for station/object DC0VZ-6. If no packets are shown the sender has not sent any weather packets the latest 10 day(s).
| Time | Temp. | Humidity | Pressure | Rain* | Wind** | Luminosity | Snow |
|---|---|---|---|---|---|---|---|
| 1778078772 | 16.11° C | 47% | 974.8 hPa | 0 mm | - | - | - |
| 1778078171 | 15.56° C | 48% | 974.9 hPa | 0 mm | - | - | - |
| 1778077571 | 15.56° C | 48% | 974.9 hPa | 0 mm | - | - | - |
| 1778076971 | 16.67° C | 48% | 974.8 hPa | 0 mm | - | - | - |
| 1778076372 | 16.11° C | 48% | 974.8 hPa | 0 mm | - | - | - |
| 1778075771 | 16.11° C | 49% | 974.8 hPa | 0 mm | - | - | - |
| 1778075171 | 16.11° C | 48% | 974.8 hPa | 0 mm | - | - | - |
| 1778074571 | 16.11° C | 49% | 975.1 hPa | 0 mm | - | - | - |
| 1778073971 | 16.11° C | 49% | 975.1 hPa | 0 mm | - | - | - |
| 1778073371 | 16.11° C | 49% | 974.8 hPa | 0 mm | - | - | - |
| 1778072771 | 17.22° C | 49% | 974.8 hPa | 0 mm | - | - | - |
| 1778072171 | 18.33° C | 50% | 974.6 hPa | 0 mm | - | - | - |
| 1778071571 | 17.22° C | 50% | 974.6 hPa | 0 mm | - | - | - |
| 1778070971 | 17.22° C | 50% | 974.3 hPa | 0 mm | - | - | - |
| 1778070370 | 17.22° C | 50% | 974.3 hPa | 0 mm | - | - | - |
| 1778069771 | 17.22° C | 51% | 974.5 hPa | 0 mm | - | - | - |
| 1778069170 | 16.67° C | 51% | 974.5 hPa | 0 mm | - | - | - |
| 1778068570 | 16.11° C | 53% | 974.6 hPa | 0 mm | - | - | - |
| 1778067970 | 17.22° C | 53% | 974.6 hPa | 0 mm | - | - | - |
| 1778067370 | 17.78° C | 53% | 974.6 hPa | 0 mm | - | - | - |
| 1778066770 | 16.67° C | 53% | 974.6 hPa | 0 mm | - | - | - |
| 1778066170 | 18.33° C | 55% | 974.6 hPa | 0 mm | - | - | - |
| 1778065570 | 17.78° C | 54% | 974.6 hPa | 0 mm | - | - | - |
| 1778064970 | 18.33° C | 56% | 974.8 hPa | 0 mm | - | - | - |
| 1778064370 | 17.22° C | 56% | 974.8 hPa | 0 mm | - | - | - |
* Rain latest hour (hover to see other rain measurements)
** Current wind speed in m/s (hover to see current wind gust speed)